Starlink 11684

operational
NORAD ID: 64240 Int'l Des: 2025-119 Owner: SPXS Country: US Constellation: starlink
LEOCIRCULAR

Über Starlink 11684

Beschreibung wird geladen...

Live-Position

3D-Globus wird geladen...

Nächste Überflüge

Höhenverlauf

Altitude vs Time

uPlot chart will show altitude changes over time

Zweizeiliger Elementsatz

1 64240U 25119H 26095.58828310 .00280867 00000-0 21089-2 0 9994
2 64240 43.0007 47.1128 0002247 271.3684 88.6926 15.70956495 49475
Epoch: 5. Apr. 2026 • Age: 7 hours

Aktueller Status

Höhe 367.0 km
Geschwindigkeit 7.69 km/s
Subsatellitenpunkt -41.85°S, 177.02°E
Startdatum 3. Juni 2025
Alter 0.8 years
Typ internet

Technische Details

Klassifizierung Payload
Masse 960.00 kg
Trockenmasse 910.00 kg
Gesamtmasse 960.00 kg
Länge 0.30 m
Durchmesser 4.10 m
Spannweite 29.00 m
Form Box + pan
Hersteller SPXS
Bus-Typ Starlink V2MD
Phasenstatus In Orbit
Besitzer/Staat SPXS/US

Große Konstellationen

Loading constellations...